EA1AY-13 Weather Reports


Display with metric or nautical units.
time (UTC)temp
F
wind
direction
speed
MPH
gust
MPH
rain 1hr
in
rain 24hr
in
rain mn
in
humidity
%
barometer
mb
20260902215017 65 0.0 1.0 0.00 0.00 0.00 72 1025.3
20260902214017 65 0.0 0.0 0.00 0.00 0.00 73 1025.1
20260902213015 65 0.0 2.0 0.00 0.00 0.00 71 1024.9
20260902212017 65 0.0 1.0 0.00 0.00 0.00 73 1024.9
20260902211017 65 0.0 0.0 0.00 0.00 0.00 75 1024.9
20260902210018 66 0.0 0.0 0.00 0.00 0.00 76 1024.8
20260902205017 66 0.0 1.0 0.00 0.00 0.00 76 1024.7
20260902204017 66 0.0 0.0 0.00 0.00 0.00 77 1024.8
20260902203037 67 0.0 0.0 0.00 0.00 0.00 77 1024.7
20260902202018 67 0.0 0.0 0.00 0.00 0.00 77 1024.6
20260902201038 67 0.0 0.0 0.00 0.00 0.00 78 1024.5
20260902200018 67 0.0 0.0 0.00 0.00 0.00 79 1024.3
20260902195018 68 0.0 1.0 0.00 0.00 0.00 80
20260902194017 68 0.0 0.0 0.00 0.00 0.00 80
20260902193017 68 0.0 1.0 0.00 0.00 0.00 81
20260902192017 69 0.0 0.0 0.00 0.00 0.00 81
20260902191017 69 0.0 1.0 0.00 0.00 0.00 82
20260902190017 70 0.0 1.0 0.00 0.00 0.00 82
20260902185018 70 0.0 4.0 0.00 0.00 0.00 83
20260902184037 71 135 1.0 2.0 0.00 0.00 0.00 82
20260902183018 72 135 1.0 3.0 0.00 0.00 0.00 81
20260902182018 73 135 1.0 2.0 0.00 0.00 0.00 80
20260902181018 74 0.0 1.0 0.00 0.00 0.00 80
20260902180017 74 135 1.0 3.0 0.00 0.00 0.00 80
20260902175017 74 135 1.0 3.0 0.00 0.00 0.00 79
20260902174017 74 135 1.0 4.0 0.00 0.00 0.00 79
20260902173017 74 135 2.0 4.0 0.00 0.00 0.00 78
20260902172017 75 135 2.0 5.0 0.00 0.00 0.00 78
20260902171018 75 135 2.0 4.0 0.00 0.00 0.00 78
20260902170058 75 135 2.0 5.0 0.00 0.00 0.00 77
20260902165018 76 135 2.0 8.0 0.00 0.00 0.00 76
20260902164018 76 135 2.0 5.0 0.00 0.00 0.00 76
20260902163017 76 135 2.0 6.0 0.00 0.00 0.00 76
20260902162018 76 135 2.0 5.0 0.00 0.00 0.00 75 1024.4
20260902161119 77 135 2.0 4.0 0.00 0.00 0.00 75 1024.3
20260902160018 77 135 2.0 5.0 0.00 0.00 0.00 74 1024.3
20260902155017 78 135 2.0 6.0 0.00 0.00 0.00 74 1024.4
20260902154017 77 135 1.0 4.0 0.00 0.00 0.00 75 1024.5
20260902153018 78 135 2.0 4.0 0.00 0.00 0.00 74 1024.5
20260902152018 78 135 2.0 4.0 0.00 0.00 0.00 74 1024.6
20260902151017 78 135 2.0 5.0 0.00 0.00 0.00 74 1024.6
20260902150018 77 135 3.0 7.0 0.00 0.00 0.00 75 1024.7
20260902145017 78 135 2.0 5.0 0.00 0.00 0.00 74 1024.7
20260902144018 77 135 2.0 3.0 0.00 0.00 0.00 75 1024.7
20260902143017 77 135 2.0 6.0 0.00 0.00 0.00 76 1024.7
20260902142038 77 135 3.0 6.0 0.00 0.00 0.00 75 1024.8
20260902141018 77 135 1.0 5.0 0.00 0.00 0.00 75 1024.8
20260902140017 77 135 2.0 7.0 0.00 0.00 0.00 75 1024.8
20260902135038 77 135 2.0 6.0 0.00 0.00 0.00 75 1024.8
20260902134037 77 135 2.0 5.0 0.00 0.00 0.00 75 1024.9
20260902133017 77 135 2.0 5.0 0.00 0.00 0.00 75 1024.8
20260902132037 77 135 2.0 6.0 0.00 0.00 0.00 75 1024.8
20260902131018 77 135 2.0 5.0 0.00 0.00 0.00 75 1024.8
20260902130037 77 135 2.0 6.0 0.00 0.00 0.00 75 1024.9
20260902125018 77 135 3.0 6.0 0.00 0.00 0.00 74 1024.8
20260902124017 77 135 2.0 7.0 0.00 0.00 0.00 75 1024.9
20260902123017 77 135 3.0 5.0 0.00 0.00 0.00 74 1024.9
20260902122037 77 135 3.0 5.0 0.00 0.00 0.00 75 1024.8
20260902121017 77 135 2.0 5.0 0.00 0.00 0.00 75 1024.8
20260902120017 77 135 2.0 4.0 0.00 0.00 0.00 74 1024.9
20260902115018 77 135 2.0 4.0 0.00 0.00 0.00 75 1025.0
20260902114017 77 135 2.0 4.0 0.00 0.00 0.00 75 1025.1
20260902113018 76 135 2.0 4.0 0.00 0.00 0.00 75 1025.1
20260902112017 76 135 2.0 9.0 0.00 0.00 0.00 76 1025.2
20260902111017 76 135 2.0 5.0 0.00 0.00 0.00 75 1025.1
20260902110017 76 135 2.0 5.0 0.00 0.00 0.00 75 1025.2
20260902105017 76 135 1.0 3.0 0.00 0.00 0.00 76 1025.2
20260902104017 77 135 1.0 4.0 0.00 0.00 0.00 76 1025.3
20260902103017 76 135 1.0 4.0 0.00 0.00 0.00 76 1025.2
20260902102018 76 135 1.0 4.0 0.00 0.00 0.00 78 1025.1
20260902101017 74 135 1.0 4.0 0.00 0.00 0.00 80 1025.1
20260902100038 74 135 1.0 3.0 0.00 0.00 0.00 79 1025.1
20260902095017 74 0.0 2.0 0.00 0.00 0.00 81 1025.1
20260902094017 73 135 1.0 4.0 0.00 0.00 0.00 80 1024.9
20260902093017 72 0.0 1.0 0.00 0.00 0.00 82 1024.9
20260902092017 71 135 1.0 2.0 0.00 0.00 0.00 82 1024.8
20260902091017 72 0.0 1.0 0.00 0.00 0.00 82 1024.8
20260902090017 71 135 1.0 2.0 0.00 0.00 0.00 82 1024.8
20260902085017 72 0.0 1.0 0.00 0.00 0.00 81 1024.7
20260902084018 71 0.0 0.0 0.00 0.00 0.00 70 1024.6
20260902083018 68 0.0 0.0 0.00 0.00 0.00 67 1024.5
20260902082017 66 0.0 0.0 0.00 0.00 0.00 63 1024.5
20260902081117 65 0.0 0.0 0.00 0.00 0.00 60 1024.3
20260902080017 64 0.0 0.0 0.00 0.00 0.00 57 1024.3
20260902075037 63 0.0 0.0 0.00 0.00 0.00 50 1024.1
20260902074017 62 0.0 1.0 0.00 0.00 0.00 50 1024.0
20260902073039 61 135 1.0 2.0 0.00 0.00 0.00 49 1023.8
20260902072018 0 0.0 0.0 0.00 0.00 0.00
20260902071017 0 0.0 0.0 0.00 0.00 0.00
20260902070503 0 0.0 0.0 0.00 0.00 0.00
20260902065517 0 0.0 0.0 0.00 0.00 0.00
20260902064518 0 0.0 0.0 0.00 0.00 0.00
20260902064003 0 0.0 0.0 0.00 0.00 0.00
20260902063017 0 0.0 0.0 0.00 0.00 0.00
20260902062017 0 0.0 0.0 0.00 0.00 0.00
20260902061503 0 0.0 0.0 0.00 0.00 0.00
20260902060517 0 0.0 0.0 0.00 0.00 0.00
20260902055517 0 0.0 0.0 0.00 0.00 0.00
20260902055003 0 0.0 0.0 0.00 0.00 0.00
20260902054017 0 0.0 0.0 0.00 0.00 0.00
20260902053017 0 0.0 0.0 0.00 0.00 0.00
20260902052502 0 0.0 0.0 0.00 0.00 0.00
20260902051517 0 0.0 0.0 0.00 0.00 0.00
20260902050517 0 0.0 0.0 0.00 0.00 0.00
20260902050003 0 0.0 0.0 0.00 0.00 0.00
20260902045037 0 0.0 0.0 0.00 0.00 0.00
20260902044017 0 0.0 0.0 0.00 0.00 0.00
20260902043522 0 0.0 0.0 0.00 0.00 0.00
20260902042517 0 0.0 0.0 0.00 0.00 0.00
20260902041514 0 0.0 0.0 0.00 0.00 0.00
20260902041032 59 0.0 0.0 0.00 0.00 0.00 50 1023.0
20260902040017 60 0.0 2.0 0.00 0.00 0.00 49 1023.0
20260902035017 60 135 1.0 2.0 0.00 0.00 0.00 51 1023.1
20260902034017 60 0.0 1.0 0.00 0.00 0.00 50 1023.1
20260902033017 60 135 1.0 1.0 0.00 0.00 0.00 50 1023.2
20260902032017 60 0.0 1.0 0.00 0.00 0.00 51 1023.1
20260902031017 60 0.0 2.0 0.00 0.00 0.00 52 1023.1
20260902030017 60 0.0 1.0 0.00 0.00 0.00 53 1023.2
20260902025017 60 135 1.0 2.0 0.00 0.00 0.00 54 1023.2
20260902024017 60 135 1.0 3.0 0.00 0.00 0.00 56 1023.2
20260902023017 60 135 1.0 3.0 0.00 0.00 0.00 55 1023.3
20260902022017 60 0.0 1.0 0.00 0.00 0.00 58 1023.4
20260902021016 61 0.0 1.0 0.00 0.00 0.00 58 1023.5
20260902020017 61 135 1.0 1.0 0.00 0.00 0.00 58 1023.4
20260902015037 61 135 1.0 1.0 0.00 0.00 0.00 59 1023.3
20260902014017 61 135 1.0 2.0 0.00 0.00 0.00 59 1023.3
20260902013036 61 135 1.0 1.0 0.00 0.00 0.00 62 1023.4
20260902012017 61 0.0 1.0 0.00 0.00 0.00 64 1023.5
20260902011016 62 0.0 0.0 0.00 0.00 0.00 66 1023.4
20260902010017 62 0.0 0.0 0.00 0.00 0.00 65 1023.4
20260902005016 62 0.0 0.0 0.00 0.00 0.00 65 1023.4
20260902004017 63 135 1.0 2.0 0.00 0.00 0.00 62 1023.4
20260902003017 63 0.0 1.0 0.00 0.00 0.00 63 1023.4
20260902002016 63 135 1.0 3.0 0.00 0.00 0.00 61 1023.4
20260902001017 62 0.0 0.0 0.00 0.00 0.00 61 1023.4
20260902000037 63 135 1.0 3.0 0.00 0.00 0.00 58 1023.4
20260901235016 62 135 1.0 1.0 0.00 0.00 0.00 58 1023.3
20260901234016 62 135 1.0 2.0 0.00 0.00 0.00 60 1023.3
20260901233017 62 0.0 1.0 0.00 0.00 0.00 60 1023.3
20260901232017 62 135 1.0 2.0 0.00 0.00 0.00 60 1023.3
20260901231016 63 0.0 1.0 0.00 0.00 0.00 61 1023.2
20260901230036 63 0.0 1.0 0.00 0.00 0.00 59 1023.2
20260901225057 63 0.0 0.0 0.00 0.00 0.00 61 1023.3
20260901224037 63 0.0 1.0 0.00 0.00 0.00 63 1023.2
20260901223017 63 0.0 0.0 0.00 0.00 0.00 62 1023.3
20260901222017 64 0.0 0.0 0.00 0.00 0.00 64 1023.4
20260901221058 63 0.0 0.0 0.00 0.00 0.00 66 1023.4
20260901220017 64 0.0 0.0 0.00 0.00 0.00 67 1023.5